Time,TemperatureF,DewpointF,PressureIn,WindDirection,WindDirectionDegrees,WindSpeedMPH,WindSpeedGustMPH,Humidity,HourlyPrecipIn,Conditions,Clouds,dailyrainin,SoftwareType,DateUTC
2013-02-08 00:02:00,38.0,36.0,29.74,SW,225,8.0,13.0,94,0.00,,,0.00,,2013-02-08 05:02:00,
2013-02-08 00:11:00,38.0,36.0,29.74,SW,225,8.0,13.0,94,0.00,,,0.00,,2013-02-08 05:11:00,
2013-02-08 00:22:00,37.0,36.0,29.73,SW,231,7.0,11.0,95,0.00,,,0.00,,2013-02-08 05:22:00,
2013-02-08 00:32:00,37.0,35.0,29.75,SSW,210,10.0,15.0,93,0.00,,,0.00,,2013-02-08 05:32:00,
2013-02-08 00:42:00,37.0,35.0,29.75,SSW,210,10.0,15.0,93,0.00,,,0.00,,2013-02-08 05:42:00,
2013-02-08 00:52:00,37.0,35.0,29.75,SW,224,7.0,15.0,94,0.00,,,0.00,,2013-02-08 05:52:00,
2013-02-08 01:01:00,37.0,35.0,29.74,SW,215,8.0,17.0,93,0.00,,,0.00,,2013-02-08 06:01:00,
2013-02-08 01:11:00,37.0,35.0,29.74,SW,215,8.0,17.0,93,0.00,,,0.00,,2013-02-08 06:11:00,
2013-02-08 01:21:00,37.0,35.0,29.77,WNW,301,10.0,17.0,92,0.00,,,0.00,,2013-02-08 06:21:00,
2013-02-08 01:31:00,36.0,34.0,29.76,SW,217,7.0,15.0,91,0.00,,,0.00,,2013-02-08 06:31:00,
2013-02-08 01:42:00,36.0,34.0,29.76,SW,217,7.0,15.0,91,0.00,,,0.00,,2013-02-08 06:42:00,
2013-02-08 01:52:00,36.0,34.0,29.76,SW,216,8.0,15.0,91,0.00,,,0.00,,2013-02-08 06:52:00,
2013-02-08 02:01:00,36.0,34.0,29.76,SSW,210,8.0,17.0,92,0.00,,,0.00,,2013-02-08 07:01:00,
2013-02-08 02:11:00,36.0,34.0,29.76,SSW,210,8.0,17.0,92,0.00,,,0.00,,2013-02-08 07:11:00,
2013-02-08 02:21:00,36.0,34.0,29.77,SW,221,8.0,15.0,92,0.00,,,0.00,,2013-02-08 07:21:00,
2013-02-08 02:32:00,36.0,34.0,29.78,SW,228,8.0,13.0,92,0.00,,,0.00,,2013-02-08 07:32:00,
2013-02-08 02:42:00,36.0,34.0,29.78,SW,221,7.0,14.0,91,0.00,,,0.00,,2013-02-08 07:42:00,
2013-02-08 02:52:00,36.0,34.0,29.78,SW,221,7.0,14.0,91,0.00,,,0.00,,2013-02-08 07:52:00,
2013-02-08 03:01:00,35.0,33.0,29.79,SW,218,9.0,15.0,91,0.00,,,0.00,,2013-02-08 08:01:00,
2013-02-08 03:11:00,35.0,33.0,29.79,SW,218,9.0,15.0,91,0.00,,,0.00,,2013-02-08 08:11:00,
2013-02-08 03:21:00,35.0,33.0,29.80,SW,216,8.0,15.0,91,0.00,,,0.00,,2013-02-08 08:21:00,
2013-02-08 03:32:00,35.0,33.0,29.80,SW,217,11.0,18.0,91,0.00,,,0.00,,2013-02-08 08:32:00,
2013-02-08 03:42:00,35.0,33.0,29.80,SW,217,11.0,18.0,91,0.00,,,0.00,,2013-02-08 08:42:00,
2013-02-08 03:52:00,35.0,33.0,29.81,SSW,211,7.0,17.0,91,0.00,,,0.00,,2013-02-08 08:52:00,
2013-02-08 04:03:00,35.0,33.0,29.81,SSW,206,6.0,15.0,91,0.00,,,0.00,,2013-02-08 09:03:00,
2013-02-08 04:11:00,35.0,33.0,29.81,SSW,206,6.0,15.0,91,0.00,,,0.00,,2013-02-08 09:11:00,
2013-02-08 04:21:00,35.0,33.0,29.83,SSW,209,6.0,11.0,91,0.00,,,0.00,,2013-02-08 09:21:00,
2013-02-08 04:32:00,35.0,33.0,29.83,SW,224,8.0,15.0,91,0.00,,,0.00,,2013-02-08 09:32:00,
2013-02-08 04:42:00,35.0,33.0,29.83,SW,224,8.0,15.0,91,0.00,,,0.00,,2013-02-08 09:42:00,
2013-02-08 04:52:00,35.0,32.0,29.84,SW,219,12.0,20.0,90,0.00,,,0.00,,2013-02-08 09:52:00,
2013-02-08 05:01:00,34.0,32.0,29.85,SW,215,7.0,20.0,91,0.00,,,0.00,,2013-02-08 10:01:00,
2013-02-08 05:11:00,34.0,32.0,29.85,SW,215,7.0,20.0,91,0.00,,,0.00,,2013-02-08 10:11:00,
2013-02-08 05:22:00,34.0,32.0,29.85,SSW,207,8.0,15.0,91,0.00,,,0.00,,2013-02-08 10:22:00,
2013-02-08 05:31:00,34.0,32.0,29.87,SW,217,9.0,16.0,91,0.00,,,0.00,,2013-02-08 10:31:00,
2013-02-08 05:42:00,34.0,32.0,29.87,SW,217,9.0,16.0,91,0.00,,,0.00,,2013-02-08 10:42:00,
2013-02-08 05:51:00,33.0,30.0,29.87,SW,230,10.0,19.0,88,0.00,,,0.00,,2013-02-08 10:51:00,
2013-02-08 06:01:00,33.0,30.0,29.88,SW,219,6.0,16.0,88,0.00,,,0.00,,2013-02-08 11:01:00,
2013-02-08 06:11:00,33.0,30.0,29.88,SW,219,6.0,16.0,88,0.00,,,0.00,,2013-02-08 11:11:00,
2013-02-08 06:21:00,33.0,30.0,29.89,SSW,193,5.0,11.0,89,0.00,,,0.00,,2013-02-08 11:21:00,
2013-02-08 06:32:00,32.0,29.0,29.89,SW,215,11.0,17.0,88,0.00,,,0.00,,2013-02-08 11:32:00,
2013-02-08 06:42:00,32.0,29.0,29.89,SW,215,11.0,17.0,88,0.00,,,0.00,,2013-02-08 11:42:00,
2013-02-08 06:52:00,32.0,29.0,29.91,SW,217,5.0,13.0,89,0.00,,,0.00,,2013-02-08 11:52:00,
2013-02-08 07:02:00,32.0,29.0,29.91,SW,214,7.0,14.0,89,0.00,,,0.00,,2013-02-08 12:02:00,
2013-02-08 07:11:00,32.0,29.0,29.91,SW,214,7.0,14.0,89,0.00,,,0.00,,2013-02-08 12:11:00,
2013-02-08 07:22:00,32.0,29.0,29.92,SW,218,8.0,12.0,88,0.00,,,0.00,,2013-02-08 12:22:00,
2013-02-08 07:33:00,32.0,29.0,29.93,SW,224,6.0,16.0,88,0.00,,,0.00,,2013-02-08 12:33:00,
2013-02-08 07:42:00,32.0,29.0,29.93,SW,224,6.0,16.0,88,0.00,,,0.00,,2013-02-08 12:42:00,
2013-02-08 07:52:00,32.0,29.0,29.95,SW,215,5.0,12.0,88,0.00,,,0.00,,2013-02-08 12:52:00,
2013-02-08 08:01:00,32.0,29.0,29.95,SW,223,10.0,14.0,88,0.00,,,0.00,,2013-02-08 13:01:00,
2013-02-08 08:11:00,32.0,29.0,29.95,SW,223,10.0,14.0,88,0.00,,,0.00,,2013-02-08 13:11:00,
2013-02-08 08:22:00,32.0,29.0,29.96,SW,221,7.0,14.0,88,0.00,,,0.00,,2013-02-08 13:22:00,
2013-02-08 08:32:00,32.0,29.0,29.97,SW,222,6.0,14.0,87,0.00,,,0.00,,2013-02-08 13:32:00,
2013-02-08 08:42:00,32.0,29.0,29.97,SW,222,6.0,14.0,87,0.00,,,0.00,,2013-02-08 13:42:00,
2013-02-08 08:51:00,32.0,28.0,29.98,SW,225,9.0,16.0,85,0.00,,,0.00,,2013-02-08 13:51:00,
2013-02-08 09:02:00,32.0,28.0,29.99,SW,224,8.0,12.0,85,0.00,,,0.00,,2013-02-08 14:02:00,
2013-02-08 09:11:00,32.0,28.0,29.99,SW,224,8.0,12.0,85,0.00,,,0.00,,2013-02-08 14:11:00,
2013-02-08 09:21:00,31.0,27.0,30.00,SW,225,8.0,17.0,85,0.00,,,0.00,,2013-02-08 14:21:00,
2013-02-08 09:32:00,30.0,26.0,30.01,SW,223,8.0,15.0,85,0.00,,,0.00,,2013-02-08 14:32:00,
2013-02-08 09:42:00,30.0,26.0,30.01,SW,223,8.0,15.0,85,0.00,,,0.00,,2013-02-08 14:42:00,
2013-02-08 09:52:00,30.0,26.0,30.01,SW,231,8.0,15.0,84,0.00,,,0.00,,2013-02-08 14:52:00,
2013-02-08 10:02:00,30.0,26.0,30.02,SW,225,8.0,13.0,84,0.00,,,0.00,,2013-02-08 15:02:00,
2013-02-08 10:11:00,30.0,26.0,30.02,SW,225,8.0,13.0,84,0.00,,,0.00,,2013-02-08 15:11:00,
2013-02-08 10:21:00,30.0,26.0,30.02,SW,228,8.0,14.0,84,0.00,,,0.00,,2013-02-08 15:21:00,
2013-02-08 10:32:00,31.0,26.0,30.03,SW,224,8.0,17.0,82,0.00,,,0.00,,2013-02-08 15:32:00,
2013-02-08 10:42:00,31.0,26.0,30.03,SW,224,8.0,17.0,82,0.00,,,0.00,,2013-02-08 15:42:00,
2013-02-08 10:52:00,30.0,25.0,30.04,SW,219,5.0,15.0,82,0.00,,,0.00,,2013-02-08 15:52:00,
2013-02-08 11:01:00,30.0,25.0,30.04,SW,219,7.0,16.0,82,0.00,,,0.00,,2013-02-08 16:01:00,
2013-02-08 11:11:00,30.0,25.0,30.04,SW,219,7.0,16.0,82,0.00,,,0.00,,2013-02-08 16:11:00,
2013-02-08 11:21:00,30.0,25.0,30.06,SW,221,8.0,15.0,82,0.00,,,0.00,,2013-02-08 16:21:00,
2013-02-08 11:32:00,30.0,25.0,30.06,SW,226,6.0,12.0,83,0.00,,,0.00,,2013-02-08 16:32:00,
2013-02-08 11:42:00,30.0,25.0,30.06,SW,226,6.0,12.0,83,0.00,,,0.00,,2013-02-08 16:42:00,
2013-02-08 11:51:00,29.0,25.0,30.07,SW,232,7.0,13.0,83,0.00,,,0.00,,2013-02-08 16:51:00,
2013-02-08 12:03:00,29.0,25.0,30.08,SW,231,8.0,14.0,83,0.00,,,0.00,,2013-02-08 17:03:00,
2013-02-08 12:12:00,29.0,25.0,30.08,SW,231,8.0,14.0,83,0.00,,,0.00,,2013-02-08 17:12:00,
2013-02-08 12:22:00,29.0,25.0,30.08,SW,216,8.0,12.0,83,0.00,,,0.00,,2013-02-08 17:22:00,
2013-02-08 12:32:00,29.0,25.0,30.08,SW,222,6.0,11.0,83,0.00,,,0.00,,2013-02-08 17:32:00,
2013-02-08 12:42:00,29.0,25.0,30.08,SW,222,6.0,11.0,83,0.00,,,0.00,,2013-02-08 17:42:00,
2013-02-08 12:52:00,29.0,25.0,30.08,SW,222,5.0,11.0,83,0.00,,,0.00,,2013-02-08 17:52:00,
2013-02-08 13:02:00,30.0,25.0,30.08,SW,222,3.0,11.0,82,0.00,,,0.00,,2013-02-08 18:02:00,
2013-02-08 13:12:00,30.0,25.0,30.08,SW,222,3.0,11.0,82,0.00,,,0.00,,2013-02-08 18:12:00,
2013-02-08 13:24:00,30.0,25.0,30.09,SSW,203,4.0,8.0,81,0.00,,,0.00,,2013-02-08 18:24:00,
2013-02-08 13:34:00,30.0,25.0,30.09,WSW,238,4.0,8.0,81,0.00,,,0.00,,2013-02-08 18:34:00,
2013-02-08 13:43:00,30.0,25.0,30.09,WSW,238,4.0,8.0,81,0.00,,,0.00,,2013-02-08 18:43:00,
2013-02-08 13:52:00,30.0,25.0,30.09,SW,217,5.0,9.0,81,0.00,,,0.00,,2013-02-08 18:52:00,
2013-02-08 14:02:00,30.0,25.0,30.09,SW,221,8.0,11.0,81,0.00,,,0.00,,2013-02-08 19:02:00,
2013-02-08 14:11:00,30.0,25.0,30.09,SW,221,8.0,11.0,81,0.00,,,0.00,,2013-02-08 19:11:00,
2013-02-08 14:22:00,30.0,25.0,30.08,SW,227,8.0,11.0,81,0.00,,,0.00,,2013-02-08 19:22:00,
2013-02-08 14:32:00,31.0,26.0,30.08,SW,225,5.0,11.0,81,0.00,,,0.00,,2013-02-08 19:32:00,
2013-02-08 14:42:00,31.0,26.0,30.08,SW,225,5.0,11.0,81,0.00,,,0.00,,2013-02-08 19:42:00,
2013-02-08 14:52:00,33.0,26.0,30.07,SSW,213,5.0,11.0,75,0.00,,,0.00,,2013-02-08 19:52:00,
2013-02-08 15:02:00,33.0,26.0,30.08,SSW,212,5.0,11.0,75,0.00,,,0.00,,2013-02-08 20:02:00,
2013-02-08 15:11:00,33.0,26.0,30.08,SSW,212,5.0,11.0,75,0.00,,,0.00,,2013-02-08 20:11:00,
2013-02-08 15:22:00,32.0,26.0,30.08,SW,221,6.0,10.0,77,0.00,,,0.00,,2013-02-08 20:22:00,
2013-02-08 15:32:00,31.0,25.0,30.08,SW,220,4.0,8.0,79,0.00,,,0.00,,2013-02-08 20:32:00,
2013-02-08 15:42:00,31.0,25.0,30.08,SW,220,4.0,8.0,79,0.00,,,0.00,,2013-02-08 20:42:00,
2013-02-08 15:52:00,31.0,26.0,30.08,SW,222,5.0,11.0,80,0.00,,,0.00,,2013-02-08 20:52:00,
2013-02-08 16:02:00,31.0,26.0,30.08,WSW,239,7.0,11.0,80,0.00,,,0.00,,2013-02-08 21:02:00,
2013-02-08 16:11:00,31.0,26.0,30.08,WSW,239,7.0,11.0,80,0.00,,,0.00,,2013-02-08 21:11:00,
2013-02-08 16:21:00,31.0,26.0,30.09,SW,220,5.0,11.0,80,0.00,,,0.00,,2013-02-08 21:21:00,
2013-02-08 16:32:00,31.0,25.0,30.10,SSW,213,6.0,11.0,79,0.00,,,0.00,,2013-02-08 21:32:00,
2013-02-08 16:42:00,31.0,25.0,30.10,SSW,213,6.0,11.0,79,0.00,,,0.00,,2013-02-08 21:42:00,
2013-02-08 16:52:00,34.0,27.0,30.09,SW,223,4.0,8.0,75,0.00,,,0.00,,2013-02-08 21:52:00,
2013-02-08 17:01:00,33.0,26.0,30.10,SSW,210,3.0,10.0,74,0.00,,,0.00,,2013-02-08 22:01:00,
2013-02-08 17:11:00,33.0,26.0,30.10,SSW,210,3.0,10.0,74,0.00,,,0.00,,2013-02-08 22:11:00,
2013-02-08 17:21:00,32.0,26.0,30.09,SW,222,3.0,8.0,77,0.00,,,0.00,,2013-02-08 22:21:00,
2013-02-08 17:32:00,32.0,26.0,30.10,SW,225,3.0,8.0,78,0.00,,,0.00,,2013-02-08 22:32:00,
2013-02-08 17:42:00,32.0,26.0,30.10,SW,225,3.0,8.0,78,0.00,,,0.00,,2013-02-08 22:42:00,
2013-02-08 17:51:00,31.0,26.0,30.11,SW,233,4.0,8.0,80,0.00,,,0.00,,2013-02-08 22:51:00,
2013-02-08 18:01:00,31.0,26.0,30.11,SW,235,2.0,7.0,81,0.00,,,0.00,,2013-02-08 23:01:00,
2013-02-08 18:11:00,31.0,26.0,30.11,SW,235,2.0,7.0,81,0.00,,,0.00,,2013-02-08 23:11:00,
2013-02-08 18:21:00,31.0,26.0,30.12,SW,228,2.0,5.0,81,0.00,,,0.00,,2013-02-08 23:21:00,
2013-02-08 18:32:00,31.0,26.0,30.13,SSW,212,3.0,6.0,82,0.00,,,0.00,,2013-02-08 23:32:00,
2013-02-08 18:42:00,31.0,26.0,30.13,SSW,212,3.0,6.0,82,0.00,,,0.00,,2013-02-08 23:42:00,
2013-02-08 18:52:00,31.0,26.0,30.13,SW,217,3.0,7.0,81,0.00,,,0.00,,2013-02-08 23:52:00,
2013-02-08 19:02:00,31.0,26.0,30.14,SW,220,2.0,5.0,80,0.00,,,0.00,,2013-02-09 00:02:00,
2013-02-08 19:11:00,31.0,26.0,30.14,SW,220,2.0,5.0,80,0.00,,,0.00,,2013-02-09 00:11:00,
2013-02-08 19:21:00,31.0,26.0,30.13,SW,225,3.0,5.0,80,0.00,,,0.00,,2013-02-09 00:21:00,
2013-02-08 19:32:00,31.0,26.0,30.13,SW,233,1.0,5.0,80,0.00,,,0.00,,2013-02-09 00:32:00,
2013-02-08 19:42:00,31.0,26.0,30.13,SW,233,1.0,5.0,80,0.00,,,0.00,,2013-02-09 00:42:00,
2013-02-08 19:52:00,31.0,26.0,30.12,WNW,295,2.0,4.0,80,0.00,,,0.00,,2013-02-09 00:52:00,
2013-02-08 20:01:00,31.0,25.0,30.12,WSW,253,2.0,5.0,79,0.00,,,0.00,,2013-02-09 01:01:00,
2013-02-08 20:11:00,31.0,25.0,30.12,WSW,253,2.0,5.0,79,0.00,,,0.00,,2013-02-09 01:11:00,
2013-02-08 20:21:00,31.0,26.0,30.11,West,273,2.0,4.0,80,0.00,,,0.00,,2013-02-09 01:21:00,
2013-02-08 20:32:00,31.0,25.0,30.11,NNE,12,1.0,4.0,79,0.00,,,0.00,,2013-02-09 01:32:00,
2013-02-08 20:41:00,31.0,25.0,30.11,NNE,12,1.0,4.0,79,0.00,,,0.00,,2013-02-09 01:41:00,
2013-02-08 20:52:00,31.0,25.0,30.11,NNE,21,1.0,5.0,79,0.00,,,0.00,,2013-02-09 01:52:00,
2013-02-08 21:01:00,31.0,25.0,30.11,ENE,74,2.0,4.0,79,0.00,,,0.00,,2013-02-09 02:01:00,
2013-02-08 21:11:00,31.0,25.0,30.11,ENE,74,2.0,4.0,79,0.00,,,0.00,,2013-02-09 02:11:00,
2013-02-08 21:21:00,31.0,26.0,30.12,NNE,24,0.0,4.0,80,0.00,,,0.00,,2013-02-09 02:21:00,
2013-02-08 21:32:00,31.0,26.0,30.12,NNE,24,0.0,4.0,80,0.00,,,0.00,,2013-02-09 02:32:00,
2013-02-08 21:42:00,31.0,26.0,30.12,NNE,24,0.0,4.0,80,0.00,,,0.00,,2013-02-09 02:42:00,
2013-02-08 21:52:00,31.0,25.0,30.14,NNE,21,1.0,3.0,79,0.00,,,0.00,,2013-02-09 02:52:00,
2013-02-08 22:01:00,31.0,25.0,30.14,NNE,12,1.0,3.0,79,0.00,,,0.00,,2013-02-09 03:01:00,
2013-02-08 22:11:00,31.0,25.0,30.14,NNE,12,1.0,3.0,79,0.00,,,0.00,,2013-02-09 03:11:00,
2013-02-08 22:21:00,31.0,25.0,30.14,North,2,1.0,3.0,78,0.00,,,0.00,,2013-02-09 03:21:00,
2013-02-08 22:32:00,31.0,25.0,30.15,North,7,1.0,3.0,79,0.00,,,0.00,,2013-02-09 03:32:00,
2013-02-08 22:42:00,31.0,25.0,30.15,North,7,1.0,3.0,79,0.00,,,0.00,,2013-02-09 03:42:00,
2013-02-08 22:53:00,31.0,25.0,30.14,North,7,1.0,4.0,78,0.00,,,0.00,,2013-02-09 03:53:00,
2013-02-08 23:02:00,30.0,24.0,30.13,North,353,1.0,4.0,79,0.00,,,0.00,,2013-02-09 04:02:00,
2013-02-08 23:12:00,30.0,24.0,30.13,North,353,1.0,4.0,79,0.00,,,0.00,,2013-02-09 04:12:00,
2013-02-08 23:23:00,31.0,26.0,30.13,North,359,0.0,4.0,80,0.00,,,0.00,,2013-02-09 04:23:00,
2013-02-08 23:32:00,30.0,24.0,30.14,NNE,27,1.0,4.0,78,0.00,,,0.00,,2013-02-09 04:32:00,
2013-02-08 23:42:00,30.0,24.0,30.14,NNE,27,1.0,4.0,78,0.00,,,0.00,,2013-02-09 04:42:00,
2013-02-08 23:52:00,30.0,24.0,30.13,North,1,0.0,3.0,79,0.00,,,0.00,,2013-02-09 04:52:00,